Time,TemperatureF,DewpointF,PressureIn,WindDirection,WindDirectionDegrees,WindSpeedMPH,WindSpeedGustMPH,Humidity,HourlyPrecipIn,Conditions,Clouds,dailyrainin,SoftwareType,DateUTC
2013-02-17 00:02:00,33.0,23.0,30.17,West,259,0.0,-999.0,67,-99.99,,,-99.99,,2013-02-17 06:02:00,
2013-02-17 00:11:00,33.0,23.0,30.17,West,259,0.0,-999.0,67,-99.99,,,-99.99,,2013-02-17 06:11:00,
2013-02-17 00:21:00,33.0,23.0,30.17,West,259,0.0,-999.0,67,-99.99,,,-99.99,,2013-02-17 06:21:00,
2013-02-17 00:31:00,33.0,23.0,30.16,West,259,0.0,-999.0,66,-99.99,,,-99.99,,2013-02-17 06:31:00,
2013-02-17 00:42:00,33.0,23.0,30.16,West,259,0.0,-999.0,66,-99.99,,,-99.99,,2013-02-17 06:42:00,
2013-02-17 00:52:00,33.0,23.0,30.16,West,259,0.0,-999.0,67,-99.99,,,-99.99,,2013-02-17 06:52:00,
2013-02-17 01:01:00,33.0,24.0,30.16,West,259,0.0,-999.0,68,-99.99,,,-99.99,,2013-02-17 07:01:00,
2013-02-17 01:11:00,33.0,24.0,30.16,West,259,0.0,-999.0,68,-99.99,,,-99.99,,2013-02-17 07:11:00,
2013-02-17 01:21:00,33.0,24.0,30.16,West,259,0.0,-999.0,68,-99.99,,,-99.99,,2013-02-17 07:21:00,
2013-02-17 01:31:00,33.0,24.0,30.16,West,259,0.0,-999.0,70,-99.99,,,-99.99,,2013-02-17 07:31:00,
2013-02-17 01:42:00,33.0,24.0,30.16,West,259,0.0,-999.0,70,-99.99,,,-99.99,,2013-02-17 07:42:00,
2013-02-17 01:52:00,33.0,23.0,30.17,West,259,0.0,-999.0,67,-99.99,,,-99.99,,2013-02-17 07:52:00,
2013-02-17 02:01:00,33.0,24.0,30.16,West,259,0.0,-999.0,70,-99.99,,,-99.99,,2013-02-17 08:01:00,
2013-02-17 02:11:00,33.0,24.0,30.16,West,259,0.0,-999.0,70,-99.99,,,-99.99,,2013-02-17 08:11:00,
2013-02-17 02:21:00,33.0,23.0,30.15,West,259,0.0,-999.0,67,-99.99,,,-99.99,,2013-02-17 08:21:00,
2013-02-17 02:31:00,33.0,24.0,30.14,West,259,0.0,-999.0,70,-99.99,,,-99.99,,2013-02-17 08:31:00,
2013-02-17 02:42:00,33.0,24.0,30.14,West,259,0.0,-999.0,70,-99.99,,,-99.99,,2013-02-17 08:42:00,
2013-02-17 02:52:00,33.0,24.0,30.14,West,259,0.0,-999.0,70,-99.99,,,-99.99,,2013-02-17 08:52:00,
2013-02-17 03:01:00,33.0,24.0,30.14,West,259,0.0,-999.0,69,-99.99,,,-99.99,,2013-02-17 09:01:00,
2013-02-17 03:11:00,33.0,24.0,30.14,West,259,0.0,-999.0,69,-99.99,,,-99.99,,2013-02-17 09:11:00,
2013-02-17 03:21:00,33.0,24.0,30.13,West,259,0.0,-999.0,70,-99.99,,,-99.99,,2013-02-17 09:21:00,
2013-02-17 03:31:00,33.0,24.0,30.13,West,259,0.0,-999.0,70,-99.99,,,-99.99,,2013-02-17 09:31:00,
2013-02-17 03:42:00,33.0,24.0,30.13,West,259,0.0,-999.0,70,-99.99,,,-99.99,,2013-02-17 09:42:00,
2013-02-17 03:51:00,33.0,24.0,30.13,West,259,0.0,-999.0,68,-99.99,,,-99.99,,2013-02-17 09:51:00,
2013-02-17 04:01:00,34.0,26.0,30.12,West,259,0.0,-999.0,71,-99.99,,,-99.99,,2013-02-17 10:01:00,
2013-02-17 04:11:00,34.0,26.0,30.12,West,259,0.0,-999.0,71,-99.99,,,-99.99,,2013-02-17 10:11:00,
2013-02-17 04:21:00,34.0,24.0,30.12,West,259,0.0,-999.0,66,-99.99,,,-99.99,,2013-02-17 10:21:00,
2013-02-17 04:31:00,34.0,26.0,30.12,West,259,0.0,-999.0,71,-99.99,,,-99.99,,2013-02-17 10:31:00,
2013-02-17 04:41:00,34.0,26.0,30.12,West,259,0.0,-999.0,71,-99.99,,,-99.99,,2013-02-17 10:41:00,
2013-02-17 04:52:00,34.0,25.0,30.11,West,259,0.0,-999.0,70,-99.99,,,-99.99,,2013-02-17 10:52:00,
2013-02-17 05:01:00,34.0,23.0,30.11,West,259,0.0,-999.0,64,-99.99,,,-99.99,,2013-02-17 11:01:00,
2013-02-17 05:11:00,34.0,23.0,30.11,West,259,0.0,-999.0,64,-99.99,,,-99.99,,2013-02-17 11:11:00,
2013-02-17 05:21:00,34.0,25.0,30.12,West,259,0.0,-999.0,68,-99.99,,,-99.99,,2013-02-17 11:21:00,
2013-02-17 05:32:00,34.0,24.0,30.12,West,259,0.0,-999.0,67,-99.99,,,-99.99,,2013-02-17 11:32:00,
2013-02-17 05:42:00,34.0,24.0,30.12,West,259,0.0,-999.0,67,-99.99,,,-99.99,,2013-02-17 11:42:00,
2013-02-17 05:52:00,34.0,25.0,30.12,West,259,0.0,-999.0,69,-99.99,,,-99.99,,2013-02-17 11:52:00,
2013-02-17 06:03:00,33.0,25.0,30.12,West,259,0.0,-999.0,71,-99.99,,,-99.99,,2013-02-17 12:03:00,
2013-02-17 06:11:00,33.0,25.0,30.12,West,259,0.0,-999.0,71,-99.99,,,-99.99,,2013-02-17 12:11:00,
2013-02-17 06:22:00,32.0,23.0,30.11,West,259,0.0,-999.0,69,-99.99,,,-99.99,,2013-02-17 12:22:00,
2013-02-17 06:32:00,31.0,23.0,30.11,West,259,0.0,-999.0,72,-99.99,,,-99.99,,2013-02-17 12:32:00,
2013-02-17 06:42:00,31.0,23.0,30.11,West,259,0.0,-999.0,72,-99.99,,,-99.99,,2013-02-17 12:42:00,
2013-02-17 06:52:00,30.0,23.0,30.11,West,259,0.0,-999.0,76,-99.99,,,-99.99,,2013-02-17 12:52:00,
2013-02-17 07:02:00,29.0,22.0,30.12,West,259,0.0,-999.0,75,-99.99,,,-99.99,,2013-02-17 13:02:00,
2013-02-17 07:12:00,29.0,22.0,30.12,West,259,0.0,-999.0,75,-99.99,,,-99.99,,2013-02-17 13:12:00,
2013-02-17 07:21:00,28.0,22.0,30.12,West,259,0.0,-999.0,77,-99.99,,,-99.99,,2013-02-17 13:21:00,
2013-02-17 07:32:00,28.0,22.0,30.12,West,259,0.0,-999.0,78,-99.99,,,-99.99,,2013-02-17 13:32:00,
2013-02-17 07:41:00,28.0,22.0,30.12,West,259,0.0,-999.0,78,-99.99,,,-99.99,,2013-02-17 13:41:00,
2013-02-17 07:51:00,28.0,22.0,30.12,West,259,0.0,-999.0,78,-99.99,,,-99.99,,2013-02-17 13:51:00,
2013-02-17 08:01:00,28.0,21.0,30.12,South,189,0.0,-999.0,76,-99.99,,,-99.99,,2013-02-17 14:01:00,
2013-02-17 08:11:00,28.0,21.0,30.12,South,189,0.0,-999.0,76,-99.99,,,-99.99,,2013-02-17 14:11:00,
2013-02-17 08:21:00,28.0,21.0,30.12,South,189,0.0,-999.0,76,-99.99,,,-99.99,,2013-02-17 14:21:00,
2013-02-17 08:32:00,33.0,25.0,30.12,South,182,0.0,-999.0,72,-99.99,,,-99.99,,2013-02-17 14:32:00,
2013-02-17 08:42:00,33.0,25.0,30.12,South,182,0.0,-999.0,72,-99.99,,,-99.99,,2013-02-17 14:42:00,
2013-02-17 08:53:00,35.0,26.0,30.12,South,182,0.0,-999.0,70,-99.99,,,-99.99,,2013-02-17 14:53:00,
2013-02-17 09:02:00,39.0,24.0,30.12,SSE,152,0.0,-999.0,54,-99.99,,,-99.99,,2013-02-17 15:02:00,
2013-02-17 09:11:00,39.0,24.0,30.12,SSE,152,0.0,-999.0,54,-99.99,,,-99.99,,2013-02-17 15:11:00,
2013-02-17 09:21:00,41.0,22.0,30.13,East,91,1.0,-999.0,47,-99.99,,,-99.99,,2013-02-17 15:21:00,
2013-02-17 09:32:00,42.0,22.0,30.12,SSW,198,1.0,-999.0,44,-99.99,,,-99.99,,2013-02-17 15:32:00,
2013-02-17 09:41:00,42.0,22.0,30.12,SSW,198,1.0,-999.0,44,-99.99,,,-99.99,,2013-02-17 15:41:00,
2013-02-17 09:52:00,43.0,22.0,30.11,SE,134,2.0,-999.0,43,-99.99,,,-99.99,,2013-02-17 15:52:00,
2013-02-17 10:01:00,44.0,22.0,30.11,East,89,1.0,-999.0,42,-99.99,,,-99.99,,2013-02-17 16:01:00,
2013-02-17 10:11:00,44.0,22.0,30.11,East,89,1.0,-999.0,42,-99.99,,,-99.99,,2013-02-17 16:11:00,
2013-02-17 10:21:00,45.0,23.0,30.11,ESE,119,1.0,-999.0,42,-99.99,,,-99.99,,2013-02-17 16:21:00,
2013-02-17 10:32:00,46.0,24.0,30.11,WSW,238,3.0,-999.0,41,-99.99,,,-99.99,,2013-02-17 16:32:00,
2013-02-17 10:41:00,46.0,24.0,30.11,WSW,238,3.0,-999.0,41,-99.99,,,-99.99,,2013-02-17 16:41:00,
2013-02-17 10:51:00,46.0,24.0,30.11,WSW,238,3.0,-999.0,41,-99.99,,,-99.99,,2013-02-17 16:51:00,
2013-02-17 11:02:00,49.0,25.0,30.10,SSW,199,1.0,-999.0,39,-99.99,,,-99.99,,2013-02-17 17:02:00,
2013-02-17 11:11:00,49.0,25.0,30.10,SSW,199,1.0,-999.0,39,-99.99,,,-99.99,,2013-02-17 17:11:00,
2013-02-17 11:21:00,50.0,25.0,30.09,East,90,1.0,-999.0,38,-99.99,,,-99.99,,2013-02-17 17:21:00,
2013-02-17 11:32:00,51.0,25.0,30.08,ESE,121,2.0,-999.0,36,-99.99,,,-99.99,,2013-02-17 17:32:00,
2013-02-17 11:41:00,51.0,25.0,30.08,ESE,121,2.0,-999.0,36,-99.99,,,-99.99,,2013-02-17 17:41:00,
2013-02-17 11:52:00,52.0,28.0,30.07,West,259,1.0,-999.0,39,-99.99,,,-99.99,,2013-02-17 17:52:00,
2013-02-17 12:02:00,52.0,28.0,30.07,West,259,1.0,-999.0,39,-99.99,,,-99.99,,2013-02-17 18:02:00,
2013-02-17 12:11:00,52.0,28.0,30.07,West,259,1.0,-999.0,39,-99.99,,,-99.99,,2013-02-17 18:11:00,
2013-02-17 12:22:00,54.0,26.0,30.05,SE,132,1.0,-999.0,34,-99.99,,,-99.99,,2013-02-17 18:22:00,
2013-02-17 12:33:00,54.0,26.0,30.03,ENE,61,3.0,-999.0,34,-99.99,,,-99.99,,2013-02-17 18:33:00,
2013-02-17 12:42:00,54.0,26.0,30.03,ENE,61,3.0,-999.0,34,-99.99,,,-99.99,,2013-02-17 18:42:00,
2013-02-17 12:52:00,55.0,28.0,30.02,East,88,2.0,-999.0,35,-99.99,,,-99.99,,2013-02-17 18:52:00,
2013-02-17 13:01:00,55.0,26.0,30.02,West,263,2.0,-999.0,33,-99.99,,,-99.99,,2013-02-17 19:01:00,
2013-02-17 13:11:00,55.0,26.0,30.02,West,263,2.0,-999.0,33,-99.99,,,-99.99,,2013-02-17 19:11:00,
2013-02-17 13:21:00,56.0,27.0,30.01,East,88,3.0,-999.0,33,-99.99,,,-99.99,,2013-02-17 19:21:00,
2013-02-17 13:32:00,57.0,28.0,29.99,East,90,1.0,-999.0,33,-99.99,,,-99.99,,2013-02-17 19:32:00,
2013-02-17 13:42:00,57.0,28.0,29.99,East,90,1.0,-999.0,33,-99.99,,,-99.99,,2013-02-17 19:42:00,
2013-02-17 13:51:00,57.0,27.0,29.98,SE,138,4.0,-999.0,32,-99.99,,,-99.99,,2013-02-17 19:51:00,
2013-02-17 14:02:00,58.0,28.0,29.98,East,90,3.0,-999.0,32,-99.99,,,-99.99,,2013-02-17 20:02:00,
2013-02-17 14:11:00,58.0,28.0,29.98,East,90,3.0,-999.0,32,-99.99,,,-99.99,,2013-02-17 20:11:00,
2013-02-17 14:21:00,59.0,28.0,29.97,East,93,3.0,-999.0,31,-99.99,,,-99.99,,2013-02-17 20:21:00,
2013-02-17 14:32:00,59.0,28.0,29.96,East,96,4.0,-999.0,31,-99.99,,,-99.99,,2013-02-17 20:32:00,
2013-02-17 14:42:00,59.0,28.0,29.96,East,96,4.0,-999.0,31,-99.99,,,-99.99,,2013-02-17 20:42:00,
2013-02-17 14:52:00,60.0,28.0,29.95,East,96,2.0,-999.0,30,-99.99,,,-99.99,,2013-02-17 20:52:00,
2013-02-17 15:02:00,60.0,29.0,29.93,NE,50,3.0,-999.0,31,-99.99,,,-99.99,,2013-02-17 21:02:00,
2013-02-17 15:11:00,60.0,29.0,29.93,NE,50,3.0,-999.0,31,-99.99,,,-99.99,,2013-02-17 21:11:00,
2013-02-17 15:21:00,61.0,30.0,29.93,NE,39,4.0,-999.0,31,-99.99,,,-99.99,,2013-02-17 21:21:00,
2013-02-17 15:32:00,62.0,30.0,29.93,SE,130,2.0,-999.0,30,-99.99,,,-99.99,,2013-02-17 21:32:00,
2013-02-17 15:41:00,62.0,30.0,29.93,SE,130,2.0,-999.0,30,-99.99,,,-99.99,,2013-02-17 21:41:00,
2013-02-17 15:52:00,61.0,30.0,29.93,ENE,67,2.0,-999.0,31,-99.99,,,-99.99,,2013-02-17 21:52:00,
2013-02-17 16:01:00,61.0,30.0,29.92,East,81,2.0,-999.0,31,-99.99,,,-99.99,,2013-02-17 22:01:00,
2013-02-17 16:12:00,61.0,30.0,29.92,East,81,2.0,-999.0,31,-99.99,,,-99.99,,2013-02-17 22:12:00,
2013-02-17 16:21:00,61.0,30.0,29.92,North,360,2.0,-999.0,31,-99.99,,,-99.99,,2013-02-17 22:21:00,
2013-02-17 16:32:00,61.0,31.0,29.92,East,88,4.0,-999.0,32,-99.99,,,-99.99,,2013-02-17 22:32:00,
2013-02-17 16:42:00,61.0,31.0,29.92,East,88,4.0,-999.0,32,-99.99,,,-99.99,,2013-02-17 22:42:00,
2013-02-17 16:52:00,61.0,31.0,29.91,South,173,1.0,-999.0,32,-99.99,,,-99.99,,2013-02-17 22:52:00,
2013-02-17 17:02:00,60.0,31.0,29.91,NE,50,3.0,-999.0,33,-99.99,,,-99.99,,2013-02-17 23:02:00,
2013-02-17 17:11:00,60.0,31.0,29.91,NE,50,3.0,-999.0,33,-99.99,,,-99.99,,2013-02-17 23:11:00,
2013-02-17 17:21:00,59.0,31.0,29.92,East,80,3.0,-999.0,34,-99.99,,,-99.99,,2013-02-17 23:21:00,
2013-02-17 17:32:00,59.0,31.0,29.92,South,186,1.0,-999.0,34,-99.99,,,-99.99,,2013-02-17 23:32:00,
2013-02-17 17:42:00,59.0,31.0,29.92,South,186,1.0,-999.0,34,-99.99,,,-99.99,,2013-02-17 23:42:00,
2013-02-17 17:52:00,59.0,32.0,29.92,East,84,1.0,-999.0,36,-99.99,,,-99.99,,2013-02-17 23:52:00,
2013-02-17 18:01:00,58.0,32.0,29.92,ESE,103,1.0,-999.0,37,-99.99,,,-99.99,,2013-02-18 00:01:00,
2013-02-17 18:11:00,58.0,32.0,29.92,ESE,103,1.0,-999.0,37,-99.99,,,-99.99,,2013-02-18 00:11:00,
2013-02-17 18:22:00,57.0,32.0,29.93,ENE,74,1.0,-999.0,38,-99.99,,,-99.99,,2013-02-18 00:22:00,
2013-02-17 18:32:00,56.0,33.0,29.93,East,90,0.0,-999.0,41,-99.99,,,-99.99,,2013-02-18 00:32:00,
2013-02-17 18:41:00,56.0,33.0,29.93,East,90,0.0,-999.0,41,-99.99,,,-99.99,,2013-02-18 00:41:00,
2013-02-17 18:52:00,55.0,33.0,29.93,East,94,0.0,-999.0,43,-99.99,,,-99.99,,2013-02-18 00:52:00,
2013-02-17 19:01:00,53.0,33.0,29.94,East,94,0.0,-999.0,46,-99.99,,,-99.99,,2013-02-18 01:01:00,
2013-02-17 19:11:00,53.0,33.0,29.94,East,94,0.0,-999.0,46,-99.99,,,-99.99,,2013-02-18 01:11:00,
2013-02-17 19:21:00,52.0,32.0,29.93,ENE,66,0.0,-999.0,46,-99.99,,,-99.99,,2013-02-18 01:21:00,
2013-02-17 19:31:00,52.0,33.0,29.93,ENE,66,0.0,-999.0,48,-99.99,,,-99.99,,2013-02-18 01:31:00,
2013-02-17 19:41:00,52.0,33.0,29.93,ENE,66,0.0,-999.0,48,-99.99,,,-99.99,,2013-02-18 01:41:00,
2013-02-17 19:51:00,51.0,34.0,29.93,ENE,66,0.0,-999.0,51,-99.99,,,-99.99,,2013-02-18 01:51:00,
2013-02-17 20:01:00,49.0,32.0,29.93,ENE,66,1.0,-999.0,52,-99.99,,,-99.99,,2013-02-18 02:01:00,
2013-02-17 20:11:00,49.0,32.0,29.93,ENE,66,1.0,-999.0,52,-99.99,,,-99.99,,2013-02-18 02:11:00,
2013-02-17 20:21:00,49.0,33.0,29.93,ENE,66,0.0,-999.0,53,-99.99,,,-99.99,,2013-02-18 02:21:00,
2013-02-17 20:32:00,47.0,32.0,29.93,ENE,66,1.0,-999.0,55,-99.99,,,-99.99,,2013-02-18 02:32:00,
2013-02-17 20:41:00,47.0,32.0,29.93,ENE,66,1.0,-999.0,55,-99.99,,,-99.99,,2013-02-18 02:41:00,
2013-02-17 20:52:00,47.0,32.0,29.93,ENE,66,0.0,-999.0,56,-99.99,,,-99.99,,2013-02-18 02:52:00,
2013-02-17 21:01:00,47.0,32.0,29.93,ENE,66,0.0,-999.0,56,-99.99,,,-99.99,,2013-02-18 03:01:00,
2013-02-17 21:11:00,47.0,32.0,29.93,ENE,66,0.0,-999.0,56,-99.99,,,-99.99,,2013-02-18 03:11:00,
2013-02-17 21:21:00,45.0,33.0,29.93,ENE,66,0.0,-999.0,62,-99.99,,,-99.99,,2013-02-18 03:21:00,
2013-02-17 21:32:00,43.0,33.0,29.93,ENE,66,0.0,-999.0,67,-99.99,,,-99.99,,2013-02-18 03:32:00,
2013-02-17 22:01:00,41.0,32.0,29.91,ENE,66,0.0,-999.0,71,-99.99,,,-99.99,,2013-02-18 04:01:00,
2013-02-17 22:21:00,40.0,32.0,29.91,ENE,66,0.0,-999.0,74,-99.99,,,-99.99,,2013-02-18 04:21:00,
2013-02-17 22:32:00,39.0,32.0,29.91,ENE,66,0.0,-999.0,75,-99.99,,,-99.99,,2013-02-18 04:32:00,
2013-02-17 22:51:00,39.0,32.0,29.90,ENE,66,0.0,-999.0,76,-99.99,,,-99.99,,2013-02-18 04:51:00,
2013-02-17 23:02:00,38.0,32.0,29.89,ENE,66,0.0,-999.0,78,-99.99,,,-99.99,,2013-02-18 05:02:00,
2013-02-17 23:21:00,38.0,32.0,29.89,ENE,66,0.0,-999.0,79,-99.99,,,-99.99,,2013-02-18 05:21:00,
2013-02-17 23:31:00,38.0,32.0,29.88,ENE,66,0.0,-999.0,80,-99.99,,,-99.99,,2013-02-18 05:31:00,
2013-02-17 23:52:00,37.0,32.0,29.88,ENE,66,0.0,-999.0,81,-99.99,,,-99.99,,2013-02-18 05:52:00,